When you browse on this site, cookies collect data to enhance your experience and personalize the content and advertising you see.
Visit our Privacy Policy to learn more. By continuing to use the site, you agree to this use of cookies and data.
EN

Hourly Weather Palkino

Today, 8 August, Saturday

Time Temperature Precipitation Wind Pressure Humidity
00:00 +19°C° 0 mm 1 mps 748 mmHg 86%
01:00 +19°C° 0 mm 1 mps 748 mmHg 87%
02:00 +19°C° 0 mm 1 mps 749 mmHg 87%
03:00 +19°C° 0 mm 1 mps 748 mmHg 88%
04:00 +19°C° 0 mm 1 mps 748 mmHg 89%
05:00 +19°C° 0 mm 1 mps 748 mmHg 90%
06:00 +19°C° 0 mm 1 mps 748 mmHg 89%
07:00 +20°C° 0 mm 1 mps 748 mmHg 88%
08:00 +21°C° 0 mm 1 mps 748 mmHg 85%
09:00 +21°C° 0.2 mm 1 mps 748 mmHg 82%
10:00 +22°C° 0.2 mm 1 mps 748 mmHg 79%
11:00 +23°C° 0.2 mm 1 mps 748 mmHg 76%
12:00 +23°C° 0.1 mm 1 mps 748 mmHg 72%
13:00 +24°C° 0.1 mm 1 mps 747 mmHg 68%
14:00 +25°C° 0.1 mm 2 mps 747 mmHg 65%
15:00 +25°C° 0.1 mm 2 mps 747 mmHg 67%
16:00 +25°C° 0.1 mm 2 mps 746 mmHg 70%
17:00 +25°C° 0.1 mm 2 mps 746 mmHg 72%
18:00 +23°C° 0 mm 2 mps 746 mmHg 76%
19:00 +21°C° 0 mm 1 mps 745 mmHg 80%
20:00 +20°C° 0 mm 1 mps 745 mmHg 84%
21:00 +19°C° 0 mm 1 mps 745 mmHg 86%
22:00 +19°C° 0 mm 1 mps 745 mmHg 88%
23:00 +17°C° 0 mm 2 mps 745 mmHg 90%

Tomorrow, 9 August, Sunday

Time Temperature Precipitation Wind Pressure Humidity
00:00 +17°C° 0 mm 2 mps 745 mmHg 91%
01:00 +16°C° 0 mm 2 mps 745 mmHg 92%
02:00 +16°C° 0 mm 1 mps 745 mmHg 93%
03:00 +16°C° 0 mm 2 mps 745 mmHg 94%
04:00 +16°C° 0 mm 2 mps 745 mmHg 94%
05:00 +16°C° 0 mm 2 mps 744 mmHg 95%
06:00 +17°C° 0 mm 2 mps 744 mmHg 91%
07:00 +19°C° 0 mm 2 mps 744 mmHg 86%
08:00 +20°C° 0 mm 2 mps 745 mmHg 82%
09:00 +21°C° 0.1 mm 2 mps 744 mmHg 78%
10:00 +23°C° 0.1 mm 2 mps 744 mmHg 74%
11:00 +25°C° 0.1 mm 3 mps 744 mmHg 69%
12:00 +25°C° 0 mm 2 mps 744 mmHg 67%
13:00 +26°C° 0 mm 2 mps 744 mmHg 64%
14:00 +26°C° 0 mm 2 mps 743 mmHg 62%
15:00 +26°C° 0.4 mm 2 mps 743 mmHg 67%
16:00 +25°C° 0.4 mm 2 mps 743 mmHg 72%
17:00 +24°C° 0.4 mm 3 mps 743 mmHg 77%
18:00 +23°C° 0.1 mm 2 mps 743 mmHg 82%
19:00 +20°C° 0.1 mm 2 mps 743 mmHg 86%
20:00 +19°C° 0.1 mm 2 mps 742 mmHg 91%
21:00 +18°C° 0.1 mm 2 mps 743 mmHg 91%
22:00 +18°C° 0.1 mm 2 mps 743 mmHg 92%
23:00 +18°C° 0.1 mm 2 mps 743 mmHg 93%

Day after tomorrow, 10 August, Monday

Time Temperature Precipitation Wind Pressure Humidity
00:00 +17°C° 0 mm 2 mps 743 mmHg 93%
01:00 +17°C° 0 mm 2 mps 742 mmHg 93%
02:00 +17°C° 0 mm 2 mps 742 mmHg 93%
03:00 +17°C° 0 mm 2 mps 742 mmHg 93%
04:00 +16°C° 0 mm 2 mps 742 mmHg 93%
05:00 +16°C° 0 mm 2 mps 742 mmHg 93%
06:00 +18°C° 0 mm 2 mps 742 mmHg 90%
07:00 +19°C° 0 mm 2 mps 742 mmHg 87%
08:00 +20°C° 0 mm 2 mps 742 mmHg 84%
09:00 +21°C° 0.6 mm 2 mps 742 mmHg 78%
10:00 +24°C° 0.6 mm 2 mps 742 mmHg 73%
11:00 +25°C° 0.6 mm 2 mps 742 mmHg 67%
12:00 +26°C° 0.1 mm 2 mps 742 mmHg 64%
13:00 +26°C° 0.1 mm 2 mps 742 mmHg 61%
14:00 +27°C° 0.1 mm 2 mps 742 mmHg 58%
15:00 +26°C° 0.1 mm 2 mps 742 mmHg 62%
16:00 +26°C° 0.1 mm 2 mps 741 mmHg 66%
17:00 +26°C° 0.1 mm 2 mps 741 mmHg 70%
18:00 +24°C° 0.1 mm 2 mps 741 mmHg 74%
19:00 +21°C° 0.1 mm 2 mps 741 mmHg 79%
20:00 +20°C° 0.1 mm 2 mps 741 mmHg 83%
21:00 +19°C° 0.1 mm 2 mps 741 mmHg 86%
22:00 +18°C° 0.1 mm 2 mps 741 mmHg 89%
23:00 +17°C° 0.1 mm 2 mps 741 mmHg 92%

11 August, Tuesday

Time Temperature Precipitation Wind Pressure Humidity
00:00 +17°C° 0 mm 2 mps 741 mmHg 93%
01:00 +17°C° 0 mm 2 mps 741 mmHg 94%
02:00 +16°C° 0 mm 2 mps 741 mmHg 94%
03:00 +16°C° 0 mm 2 mps 741 mmHg 95%
04:00 +15°C° 0 mm 2 mps 741 mmHg 95%
05:00 +15°C° 0 mm 2 mps 741 mmHg 95%
06:00 +16°C° 0 mm 3 mps 741 mmHg 92%
07:00 +17°C° 0 mm 3 mps 742 mmHg 89%
08:00 +17°C° 0 mm 3 mps 742 mmHg 86%
09:00 +18°C° 0 mm 4 mps 742 mmHg 81%
10:00 +19°C° 0 mm 4 mps 742 mmHg 77%
11:00 +20°C° 0 mm 4 mps 742 mmHg 72%
12:00 +20°C° 0 mm 4 mps 742 mmHg 70%
13:00 +20°C° 0 mm 5 mps 742 mmHg 67%
14:00 +20°C° 0 mm 5 mps 742 mmHg 64%
15:00 +19°C° 0 mm 5 mps 742 mmHg 66%
16:00 +19°C° 0 mm 5 mps 742 mmHg 69%
17:00 +17°C° 0 mm 5 mps 742 mmHg 71%
18:00 +17°C° 0 mm 4 mps 742 mmHg 74%
19:00 +14°C° 0 mm 4 mps 742 mmHg 78%
20:00 +13°C° 0 mm 3 mps 743 mmHg 81%
21:00 +12°C° 0 mm 3 mps 743 mmHg 83%
22:00 +12°C° 0 mm 3 mps 743 mmHg 86%
23:00 +11°C° 0 mm 3 mps 743 mmHg 89%

12 August, Wednesday

Time Temperature Precipitation Wind Pressure Humidity
00:00 +10°C° 0 mm 3 mps 743 mmHg 90%
01:00 +10°C° 0 mm 3 mps 743 mmHg 92%
02:00 +10°C° 0 mm 3 mps 743 mmHg 93%
03:00 +9°C° 0 mm 3 mps 743 mmHg 94%
04:00 +9°C° 0 mm 3 mps 743 mmHg 96%
05:00 +8°C° 0 mm 3 mps 743 mmHg 97%
06:00 +10°C° 0 mm 3 mps 743 mmHg 92%
07:00 +11°C° 0 mm 4 mps 744 mmHg 87%
08:00 +12°C° 0 mm 4 mps 744 mmHg 83%
09:00 +14°C° 0 mm 4 mps 744 mmHg 78%
10:00 +15°C° 0 mm 4 mps 744 mmHg 73%
11:00 +17°C° 0 mm 4 mps 744 mmHg 68%
12:00 +17°C° 0.1 mm 4 mps 744 mmHg 66%
13:00 +18°C° 0.1 mm 4 mps 744 mmHg 64%
14:00 +18°C° 0.1 mm 4 mps 744 mmHg 61%
15:00 +18°C° 0 mm 4 mps 744 mmHg 63%
16:00 +17°C° 0 mm 4 mps 744 mmHg 65%
17:00 +15°C° 0 mm 4 mps 744 mmHg 67%
18:00 +14°C° 0 mm 4 mps 744 mmHg 70%
19:00 +13°C° 0 mm 3 mps 745 mmHg 73%
20:00 +11°C° 0 mm 3 mps 745 mmHg 76%
21:00 +10°C° 0 mm 2 mps 745 mmHg 77%
22:00 +9°C° 0 mm 2 mps 745 mmHg 78%
23:00 +9°C° 0 mm 2 mps 745 mmHg 79%

13 August, Thursday

Time Temperature Precipitation Wind Pressure Humidity
00:00 +8°C° 0 mm 2 mps 745 mmHg 80%
01:00 +8°C° 0 mm 2 mps 745 mmHg 81%
02:00 +7°C° 0 mm 2 mps 745 mmHg 82%
03:00 +7°C° 0 mm 2 mps 745 mmHg 84%
04:00 +7°C° 0 mm 2 mps 745 mmHg 85%
05:00 +7°C° 0 mm 2 mps 745 mmHg 87%
06:00 +9°C° 0 mm 2 mps 745 mmHg 83%
07:00 +12°C° 0 mm 2 mps 745 mmHg 78%
08:00 +13°C° 0 mm 2 mps 745 mmHg 74%
09:00 +14°C° 0 mm 2 mps 745 mmHg 70%
10:00 +15°C° 0 mm 2 mps 745 mmHg 66%
11:00 +16°C° 0 mm 1 mps 745 mmHg 61%
12:00 +17°C° 0 mm 2 mps 745 mmHg 60%
13:00 +17°C° 0 mm 2 mps 744 mmHg 58%
14:00 +18°C° 0 mm 2 mps 744 mmHg 57%
15:00 +18°C° 0 mm 2 mps 744 mmHg 61%
16:00 +17°C° 0 mm 2 mps 744 mmHg 65%
17:00 +17°C° 0 mm 2 mps 744 mmHg 70%
18:00 +16°C° 0 mm 2 mps 744 mmHg 73%
19:00 +15°C° 0 mm 2 mps 744 mmHg 76%
20:00 +14°C° 0 mm 2 mps 744 mmHg 79%
21:00 +13°C° 0 mm 2 mps 744 mmHg 81%
22:00 +13°C° 0 mm 2 mps 744 mmHg 82%
23:00 +13°C° 0 mm 2 mps 744 mmHg 84%
Show more